Location: Cheching
(60.0667°N, 164.2167°W)
Time: 10:24:12
(UTC+00:00)

NOAA 19 - Visible Passes

Search period start: 17 January 2021 00:00
Search period end: 27 January 2021 00:00
Orbit: 841 x 861 km, 99.2° (Epoch: 17 January)

Date Brightness Start Highest point End Pass type
(mag) Time Alt. Az. Time Alt. Az. Time Alt. Az.
17 Jan 5.3 04:18:06 10° SSE 04:23:41 87° WSW 04:29:17 10° NNW visible
17 Jan 7.6 06:00:46 10° SW 06:05:07 23° W 06:09:30 10° NW visible
17 Jan 7.9 16:30:41 10° NE 16:34:37 19° E 16:38:30 10° SE visible
17 Jan 5.5 18:10:40 10° NNE 18:16:13 75° ESE 18:21:43 10° SSW visible
18 Jan 5.2 04:06:22 10° SSE 04:11:56 81° ENE 04:17:31 10° NNW visible
18 Jan 7.3 05:48:33 10° SSW 05:53:13 27° W 05:57:54 10° NNW visible
18 Jan 8.1 16:19:14 10° NE 16:22:39 16° E 16:26:03 10° ESE visible
18 Jan 5.8 17:58:55 10° NNE 18:04:26 64° ESE 18:09:53 10° S visible
19 Jan 5.2 03:54:41 10° SSE 04:00:12 70° ENE 04:05:44 10° NNW visible
19 Jan 7.1 05:36:25 10° SSW 05:41:20 32° W 05:46:16 10° NNW visible
19 Jan 8.3 16:07:56 10° NE 16:10:41 14° E 16:13:25 10° ESE visible
19 Jan 6.1 17:47:11 10° NNE 17:52:37 55° ESE 17:58:00 10° S visible
20 Jan 5.3 03:43:01 10° SE 03:48:29 61° ENE 03:53:57 10° NNW visible
20 Jan 6.8 05:24:20 10° SSW 05:29:28 37° W 05:34:36 10° NNW visible
20 Jan 8.4 15:56:55 10° ENE 15:58:41 11° ENE 16:00:26 10° E visible
20 Jan 6.4 17:35:29 10° NNE 17:40:48 46° E 17:46:04 10° S visible
21 Jan 5.4 03:31:25 10° SE 03:36:47 52° ENE 03:42:09 10° NNW visible
21 Jan 6.5 05:12:20 10° S 05:17:37 43° W 05:22:54 10° NNW visible
21 Jan 8.5 06:58:38 10° W 06:59:48 11° WNW 07:00:57 10° WNW visible
21 Jan 6.7 17:23:47 10° NNE 17:28:57 39° E 17:34:05 10° SSE visible
22 Jan 6.2 05:00:23 10° S 05:05:47 51° W 05:11:12 10° NNW visible
22 Jan 8.3 06:45:21 10° WSW 06:47:47 13° W 06:50:14 10° NW visible
22 Jan 7.0 17:12:06 10° NNE 17:17:06 34° E 17:22:02 10° SSE visible
23 Jan 5.9 04:48:29 10° S 04:53:58 60° WSW 04:59:28 10° NNW visible
23 Jan 8.2 06:32:37 10° WSW 06:35:49 15° W 06:39:00 10° NW visible
23 Jan 7.3 17:00:28 10° NNE 17:05:13 29° E 17:09:55 10° SSE visible
24 Jan 5.6 04:36:38 10° S 04:42:11 70° WSW 04:47:44 10° NNW visible
24 Jan 8.0 06:20:07 10° SW 06:23:51 18° W 06:27:36 10° NW visible
24 Jan 7.6 16:48:51 10° NE 16:53:19 24° E 16:57:43 10° SE visible
24 Jan 5.3 18:29:09 10° NNE 18:34:41 87° WNW 18:40:11 10° SSW visible
25 Jan 5.4 04:24:50 10° SSE 04:30:24 82° WSW 04:35:58 10° NNW visible
25 Jan 7.7 06:07:44 10° SW 06:11:54 21° W 06:16:05 10° NW visible
25 Jan 7.9 16:37:18 10° NE 16:41:23 21° E 16:45:27 10° SE visible
25 Jan 5.4 18:17:23 10° NNE 18:22:56 81° ESE 18:28:25 10° SSW visible
26 Jan 5.2 04:13:04 10° SSE 04:18:38 86° ENE 04:24:12 10° NNW visible
26 Jan 7.5 05:55:29 10° SW 05:59:59 25° W 06:04:31 10° NW visible
26 Jan 8.1 16:25:48 10° NE 16:29:26 18° E 16:33:03 10° SE visible
26 Jan 5.6 18:05:38 10° NNE 18:11:09 69° ESE 18:16:36 10° S visible
